THORAD DELTA 1 DEB, 8308

Orbit data source: Space-Track

THORAD DELTA 1 DEB, 8308 is space debris in SSO originally from a launch on Fri, 15 Nov 1974 UTC launched from the Air Force Western Test Range (AFWTR). Debris objects in space refer to the collection of defunct objects orbiting the Earth. Examples of debris include non-operational satellites, rocket bodies, and fragments generated from explosions, collisions, or faulty payload assembly.

Loading next visibility...
Identifier
8308, 1974-089BR
Orbit
SSO
Country
Flag of USUS
Related business
Manufacturer
Unknown
Mission
Spacecraft
Bus & Motor
Unknown
Mass
Unknown
Launch date (UTC)
1974-11-15 (51 years ago)
Launch vehicle
Unknown
Launch site
Air Force Western Test Range (AFWTR)
Object type
Payload
Rocket body
Debris
Shape & HBR
Unknown shape, 0.3 m
Radar Cross Section
Medium (>0.1 m² and <1 m²)

Expand to show TLE details & history
Last TLE update: 17 hours ago

TLE from 17 hours ago
0 THORAD DELTA 1 DEB
1 08308U 74089BR  26035.11889827 -.00000011  00000-0  21979-3 0  9991
2 08308 101.5141  79.2514 0061289 306.1546  67.7488 12.45581930328486
Epoch: 2026-02-04T02:51Z
TLE epoch observation values (Epoch: 2026-02-04T02:51:12.810Z)
Latitude
14.23103°
Longitude
-100.7889°
Altitude
1,466.898 km
Speed
7.139 km/s
True Right ascension
05h 05m 13s
True Declination
14° 09' 24"
Sunlit
Object was in daylight at epoch
Visualization orbit readout
Latitude
Unknown
Longitude
Unknown
Altitude
Unknown
Speed
Unknown
Apparent Right ascension
Unknown
Apparent Declination
Unknown
Sunlit
N/A
Visualization observer readout
Local Sidereal Time
21:24:08
Azimuth
Unknown
Elevation
Unknown
Doppler factor
Unknown
Orbital elements
Apogee altitude
1,528.733 km
Perigee altitude
1,432.403 km
Semi-major axis
7,858.705 km
Eccentricity
0.00613
Inclination
101.5141°
RAAN
79.2514°
Arg. of periapsis
306.1546°
True anomaly
68.4007°
Mean anomaly
67.7488°
Eccentric anomaly
68.07456°
Mean motion
3.11542 °/min
Orbital period
115.55 mins
BSTAR
0.00021979
Loading maneuver chart data...
Computing Atmospheric mass density...

Documentation

Showing up to 5 results
|